Weather History for Coldwater, MI

Change the Weather History Date:

Friday, October 26, 2012

  Actual Average (KJYM) Record (KJYM)
Temperature  
Mean Temperature 54 °F -  
Max Temperature 70 °F 56 °F 81 °F (1963)
Min Temperature 37 °F 36 °F 20 °F (1966)
Degree Days  
Heating Degree Days 12    
Growing Degree Days 4 (Base 50)    
Moisture  
Dew Point 37 °F    
Average Humidity 73    
Maximum Humidity 93    
Minimum Humidity 54    
Precipitation  
Precipitation 0.00 in - - ()
Sea Level Pressure  
Sea Level Pressure 30.15 in    
Wind  
Wind Speed 12 mph (NW)    
Max Wind Speed 24 mph    
Max Gust Speed 30 mph    
Visibility 10 miles    
Events Rain    
Averages and records for this station are not official NWS values.
T = Trace of Precipitation, MM = Missing Value Source: NWS Daily Summary

Daily Weather History Graph

Daily Weather History Graph

Search for Another Location

Airport:

Trip Planner

Search our weather history database for the weather conditions in past years. The results will help you decide how hot, cold, wet, or windy it might be!

Date:

Astronomy

Oct. 26, 2012 Rise Set
Actual Time 8:06 AM EDT 6:41 PM EDT
Civil Twilight 7:37 AM EDT 7:10 PM EDT
Nautical Twilight 7:04 AM EDT 7:42 PM EDT
Astronomical Twilight 6:32 AM EDT 8:15 PM EDT
Moon 4:58 PM EDT (10/26) 4:59 AM EDT (10/26)
Length of Visible Light 11h 32m
Length of Day
10h 35m
Waxing Gibbous, 91% of the Moon is Illuminated
Oct 26
Waxing Gibbous
Oct 29
Full
Nov 6
Last Quarter
Nov 13
New
Nov 20
First Quarter

Hourly Weather History & Observations

Time (EDT) Temp. Windchill Dew Point Humidity Pressure Visibility Wind Dir Wind Speed Gust Speed Precip Events Conditions
12:14 AM 70.2 °F - 54.3 °F 57% 29.85 in 10.0 mi SW 16.1 mph 23.0 mph N/A   Overcast
12:34 AM 59.4 °F - 53.8 °F 82% 29.89 in 10.0 mi WNW 24.2 mph 29.9 mph N/A   Overcast
12:55 AM 57.2 °F - 52.2 °F 83% 29.91 in 10.0 mi WNW 13.8 mph 23.0 mph N/A   Overcast
1:14 AM 55.4 °F - 50.7 °F 84% 29.93 in 10.0 mi WNW 17.3 mph 23.0 mph N/A   Overcast
1:34 AM 52.5 °F - 48.2 °F 85% 29.94 in 10.0 mi WNW 16.1 mph 23.0 mph N/A   Overcast
1:54 AM 51.1 °F - 45.7 °F 82% 29.96 in 10.0 mi NW 20.7 mph 25.3 mph N/A   Overcast
2:14 AM 50.0 °F - 45.0 °F 83% 29.97 in 10.0 mi WNW 13.8 mph 23.0 mph N/A   Overcast
2:34 AM 49.1 °F - 45.5 °F 87% 29.99 in 7.0 mi WNW 13.8 mph 18.4 mph N/A   Overcast
2:55 AM 47.8 °F - 44.2 °F 87% 30.00 in 7.0 mi WNW 15.0 mph 23.0 mph N/A   Overcast
3:14 AM 46.9 °F - 44.6 °F 92% 30.03 in 4.0 mi WNW 15.0 mph 21.9 mph N/A Rain Light Rain
3:35 AM 46.6 °F - 44.6 °F 93% 30.03 in 4.0 mi NW 12.7 mph 18.4 mph N/A Rain Light Rain
3:55 AM 46.2 °F 40.1 °F 43.7 °F 91% 30.02 in 10.0 mi NW 13.8 mph 20.7 mph N/A   Light Drizzle
4:14 AM 46.0 °F 41.0 °F 43.5 °F 91% 30.03 in 10.0 mi NW 10.4 mph - N/A   Overcast
4:35 AM 46.0 °F 41.0 °F 43.3 °F 90% 30.04 in 10.0 mi WNW 10.4 mph 17.3 mph N/A Rain Light Rain
4:54 AM 46.0 °F 40.2 °F 43.0 °F 89% 30.05 in 10.0 mi NW 12.7 mph 18.4 mph N/A Rain Light Rain
5:14 AM 45.9 °F 39.7 °F 42.8 °F 89% 30.06 in 10.0 mi NW 13.8 mph - N/A Rain Light Rain
5:35 AM 45.7 °F 39.5 °F 42.3 °F 88% 30.09 in 10.0 mi WNW 13.8 mph 17.3 mph N/A Rain Light Rain
5:54 AM 45.5 °F 39.2 °F 41.5 °F 86% 30.08 in 10.0 mi NW 13.8 mph 18.4 mph N/A   Overcast
6:14 AM 45.1 °F 38.8 °F 41.5 °F 87% 30.07 in 10.0 mi NNW 13.8 mph 20.7 mph N/A   Overcast
6:35 AM 45.0 °F 38.9 °F 41.5 °F 88% 30.10 in 10.0 mi NW 12.7 mph 20.7 mph N/A   Overcast
6:54 AM 44.6 °F 38.1 °F 41.0 °F 87% 30.11 in 10.0 mi NW 13.8 mph 18.4 mph N/A   Overcast
7:14 AM 44.6 °F 38.8 °F 40.1 °F 84% 30.12 in 10.0 mi NW 11.5 mph 17.3 mph N/A   Overcast
7:35 AM 44.6 °F 39.7 °F 39.9 °F 84% 30.14 in 10.0 mi NW 9.2 mph 18.4 mph N/A   Overcast
7:54 AM 44.2 °F 38.8 °F 38.5 °F 80% 30.15 in 10.0 mi NW 10.4 mph - N/A   Overcast
8:15 AM 44.2 °F 39.7 °F 38.8 °F 81% 30.16 in 10.0 mi NW 8.1 mph - N/A   Overcast
8:54 AM 43.9 °F 37.5 °F 38.7 °F 82% 30.16 in 10.0 mi NNW 12.7 mph - N/A   Overcast
9:54 AM 44.4 °F 38.6 °F 36.7 °F 74% 30.18 in 10.0 mi NNW 11.5 mph 17.3 mph N/A   Overcast
10:15 AM 44.1 °F 37.4 °F 36.1 °F 74% 30.20 in 10.0 mi NNW 13.8 mph - N/A   Overcast
10:34 AM 44.6 °F 38.1 °F 36.1 °F 72% 30.21 in 10.0 mi NNW 13.8 mph 17.3 mph N/A   Overcast
10:54 AM 44.2 °F 39.2 °F 35.2 °F 71% 30.22 in 10.0 mi NNW 9.2 mph - N/A   Overcast
11:15 AM 44.6 °F 39.2 °F 35.2 °F 70% 30.22 in 10.0 mi NW 10.4 mph - N/A   Overcast
11:34 AM 44.8 °F 39.0 °F 34.7 °F 68% 30.23 in 10.0 mi NW 11.5 mph 16.1 mph N/A   Overcast
11:54 AM 45.7 °F 41.0 °F 35.4 °F 67% 30.24 in 10.0 mi NNW 9.2 mph - N/A   Overcast
12:15 PM 45.9 °F 42.3 °F 34.7 °F 65% 30.24 in 10.0 mi NNW 6.9 mph - N/A   Overcast
12:34 PM 45.7 °F 41.5 °F 35.2 °F 67% 30.24 in 10.0 mi WNW 8.1 mph - N/A   Mostly Cloudy
12:55 PM 47.3 °F - 34.9 °F 62% 30.24 in 10.0 mi North 5.8 mph - N/A   Mostly Cloudy
1:15 PM 47.1 °F - 34.2 °F 61% 30.23 in 10.0 mi NW 8.1 mph - N/A   Mostly Cloudy
1:34 PM 46.9 °F - 33.6 °F 60% 30.23 in 10.0 mi NW 10.4 mph - N/A   Scattered Clouds
1:55 PM 48.0 °F - 33.3 °F 57% 30.24 in 10.0 mi NW 8.1 mph - N/A   Clear
2:14 PM 48.6 °F - 32.9 °F 55% 30.23 in 10.0 mi NNW 10.4 mph - N/A   Clear
2:35 PM 49.3 °F - 34.0 °F 56% 30.21 in 10.0 mi NNW 8.1 mph - N/A   Clear
2:55 PM 49.6 °F - 34.0 °F 55% 30.21 in 10.0 mi NW 8.1 mph - N/A   Clear
3:14 PM 49.6 °F - 34.2 °F 55% 30.21 in 10.0 mi NW 9.2 mph - N/A   Clear
3:35 PM 48.9 °F - 33.3 °F 55% 30.22 in 10.0 mi NW 5.8 mph - N/A   Clear
3:55 PM 48.2 °F - 33.3 °F 56% 30.22 in 10.0 mi NW 10.4 mph - N/A   Clear
4:14 PM 47.5 °F - 32.9 °F 57% 30.21 in 10.0 mi NNW 11.5 mph - N/A   Clear
4:35 PM 47.5 °F - 32.4 °F 56% 30.20 in 10.0 mi NNW 12.7 mph - N/A   Clear
4:54 PM 48.2 °F - 32.2 °F 54% 30.21 in 10.0 mi North 11.5 mph - N/A   Clear
5:14 PM 47.1 °F - 31.5 °F 55% 30.21 in 10.0 mi North 9.2 mph - N/A   Clear
5:35 PM 46.0 °F 41.9 °F 32.4 °F 59% 30.20 in 10.0 mi North 8.1 mph - N/A   Clear
5:54 PM 46.0 °F 42.5 °F 32.9 °F 60% 30.21 in 10.0 mi NNW 6.9 mph - N/A   Clear
6:14 PM 45.7 °F 41.5 °F 32.4 °F 60% 30.20 in 10.0 mi NNW 8.1 mph - N/A   Clear
6:34 PM 45.1 °F 40.8 °F 32.4 °F 61% 30.20 in 10.0 mi NNW 8.1 mph - N/A   Clear
6:54 PM 44.6 °F 41.4 °F 32.7 °F 63% 30.20 in 10.0 mi North 5.8 mph - N/A   Clear
7:15 PM 44.6 °F 40.2 °F 32.0 °F 61% 30.21 in 10.0 mi North 8.1 mph - N/A   Clear
7:34 PM 44.2 °F 41.0 °F 32.0 °F 62% 30.22 in 10.0 mi NNW 5.8 mph - N/A   Clear
8:15 PM 42.6 °F 40.9 °F 32.0 °F 66% 30.22 in 10.0 mi North 3.5 mph - N/A   Clear
8:34 PM 42.1 °F 40.2 °F 32.0 °F 67% 30.22 in 10.0 mi North 3.5 mph - N/A   Clear
8:55 PM 42.1 °F 39.2 °F 31.8 °F 67% 30.22 in 10.0 mi North 4.6 mph - N/A   Clear
9:15 PM 41.2 °F 39.2 °F 32.0 °F 70% 30.22 in 10.0 mi North 3.5 mph - N/A   Clear
9:34 PM 41.5 °F 39.6 °F 31.6 °F 68% 30.22 in 10.0 mi North 3.5 mph - N/A   Clear
9:55 PM 39.9 °F - 32.0 °F 73% 30.23 in 10.0 mi Calm Calm - N/A   Clear
10:14 PM 37.4 °F 32.8 °F 32.0 °F 81% 30.23 in 10.0 mi NW 5.8 mph - N/A   Clear
10:34 PM 38.8 °F 36.5 °F 31.8 °F 76% 30.23 in 10.0 mi NNW 3.5 mph - N/A   Clear
10:54 PM 38.3 °F 35.9 °F 32.0 °F 78% 30.24 in 10.0 mi NNW 3.5 mph - N/A   Clear
11:14 PM 37.8 °F 34.2 °F 32.0 °F 80% 30.23 in 10.0 mi NNW 4.6 mph - N/A   Clear
11:35 PM 38.7 °F 33.6 °F 32.4 °F 78% 30.22 in 10.0 mi NNW 6.9 mph - N/A   Clear
11:54 PM 39.2 °F 35.9 °F 32.4 °F 76% 30.24 in 10.0 mi NNW 4.6 mph - N/A   Clear